2023/08/07 00:00:00, 9.4,24.0
2023/08/07 00:10:00,10.5,24.0
2023/08/07 00:20:00,10.3,24.0
2023/08/07 00:30:00, 9.9,25.1
2023/08/07 00:40:00, 7.6,25.4
2023/08/07 00:50:00, 4.9,25.1
2023/08/07 01:00:00, 4.5,24.7
2023/08/07 01:10:00, 4.0,24.4
2023/08/07 01:20:00, 1.9,24.4
2023/08/07 01:30:00, 4.9,24.6
2023/08/07 01:40:00, 4.2,24.5
2023/08/07 01:50:00, 3.4,24.5
2023/08/07 02:00:00, 4.1,24.1
2023/08/07 02:10:00, 5.5,24.3
2023/08/07 02:20:00, 2.4,25.8
2023/08/07 02:30:00, 2.4,25.2
2023/08/07 02:40:00, 4.3,24.7
2023/08/07 02:50:00, 4.2,24.4
2023/08/07 03:00:00, 0.5,24.4
2023/08/07 03:10:00, 0.5,24.4
2023/08/07 03:20:00, 6.3,25.0
2023/08/07 03:30:00, 7.6,25.3
2023/08/07 03:40:00, 7.6,24.9
2023/08/07 03:50:00, 7.5,24.4
2023/08/07 04:00:00, 6.3,24.3
2023/08/07 04:10:00, 1.2,24.0
2023/08/07 04:20:00, 0.5,24.1
2023/08/07 04:30:00, 0.8,24.0
2023/08/07 04:40:00, 2.1,24.0
2023/08/07 04:50:00, 2.5,24.0
2023/08/07 05:00:00, 2.8,23.8
2023/08/07 05:10:00, 2.9,24.0
2023/08/07 05:20:00, 3.1,23.9
2023/08/07 05:30:00, 4.3,24.3
2023/08/07 05:40:00, 5.7,24.4
2023/08/07 05:50:00, 6.6,24.3
2023/08/07 06:00:00, 7.4,24.5
2023/08/07 06:10:00, 7.9,24.5
2023/08/07 06:20:00, 8.0,24.7
2023/08/07 06:30:00, 8.1,25.1
2023/08/07 06:40:00, 1.7,26.6
2023/08/07 06:50:00, 2.4,27.0
2023/08/07 07:00:00, 7.1,27.1
2023/08/07 07:10:00, 5.1,26.6
2023/08/07 07:20:00, 1.1,26.6
2023/08/07 07:30:00, 1.7,27.4
2023/08/07 07:40:00, 2.7,29.0
2023/08/07 07:50:00, 2.7,29.6
2023/08/07 08:00:00, 5.0,30.1
2023/08/07 08:10:00, 4.6,29.9
2023/08/07 08:20:00, 5.2,30.0
2023/08/07 08:30:00, 5.7,30.3
2023/08/07 08:40:00, 6.3,30.0
2023/08/07 08:50:00, 4.6,30.7
2023/08/07 09:00:00, 5.5,31.1
2023/08/07 09:10:00, 7.4,30.6
2023/08/07 09:20:00, 9.2,31.2
2023/08/07 09:30:00, 0.8,31.2
2023/08/07 09:40:00, 0.4,30.3
2023/08/07 09:50:00, 2.4,30.4
2023/08/07 10:00:00, 6.2,29.7
2023/08/07 10:10:00, 4.1,29.8
2023/08/07 10:20:00, 4.1,29.5
2023/08/07 10:30:00, 3.0,29.8
2023/08/07 10:40:00, 0.4,29.7
2023/08/07 10:50:00, 1.0,29.8
2023/08/07 11:00:00, 0.5,29.5
2023/08/07 11:10:00, 0.7,29.7
2023/08/07 11:20:00,---,29.3
2023/08/07 11:30:00, 2.4,29.1
2023/08/07 11:40:00, 3.2,28.7
2023/08/07 11:50:00,---,28.8
2023/08/07 12:00:00, 6.7,28.9
2023/08/07 12:10:00, 5.6,29.3
2023/08/07 12:20:00, 5.8,30.2
2023/08/07 12:30:00, 7.3,31.2
2023/08/07 12:40:00, 7.3,31.0
2023/08/07 12:50:00, 2.0,31.3
2023/08/07 13:00:00, 3.6,31.4
2023/08/07 13:10:00, 3.8,31.1
2023/08/07 13:20:00, 4.9,31.1
2023/08/07 13:30:00, 3.5,30.6
2023/08/07 13:40:00, 4.6,30.7
2023/08/07 13:50:00, 1.8,30.4
2023/08/07 14:00:00, 0.3,30.4
2023/08/07 14:10:00, 0.1,30.0
2023/08/07 14:20:00, 1.2,30.0
2023/08/07 14:30:00, 0.1,29.5
2023/08/07 14:40:00, 6.7,29.9
2023/08/07 14:50:00, 7.4,30.0
2023/08/07 15:00:00, 7.3,29.9
2023/08/07 15:10:00, 7.1,29.8
2023/08/07 15:20:00, 7.2,29.6
2023/08/07 15:30:00, 7.2,29.3
2023/08/07 15:40:00, 7.1,29.3
2023/08/07 15:50:00, 7.1,29.4
2023/08/07 16:00:00, 7.2,29.3
2023/08/07 16:10:00, 7.3,29.0
2023/08/07 16:20:00, 7.3,29.0
2023/08/07 16:30:00, 7.3,29.0
2023/08/07 16:40:00, 7.3,28.7
2023/08/07 16:50:00, 7.4,28.7
2023/08/07 17:00:00, 7.4,28.7
2023/08/07 17:10:00, 7.4,28.7
2023/08/07 17:20:00, 7.6,28.6
2023/08/07 17:30:00, 7.6,28.6
2023/08/07 17:40:00, 7.5,28.7
2023/08/07 17:50:00, 7.5,28.5
2023/08/07 18:00:00, 7.5,28.5
2023/08/07 18:10:00, 7.2,28.2
2023/08/07 18:20:00, 7.1,28.5
2023/08/07 18:30:00, 6.7,28.3
2023/08/07 18:40:00, 6.1,28.2
2023/08/07 18:50:00, 5.2,28.0
2023/08/07 19:00:00, 4.4,27.9
2023/08/07 19:10:00, 3.7,27.7
2023/08/07 19:20:00, 3.5,27.6
2023/08/07 19:30:00, 2.0,27.9
2023/08/07 19:40:00, 0.7,28.0
2023/08/07 19:50:00, 1.4,27.6
2023/08/07 20:00:00, 2.1,27.8
2023/08/07 20:10:00, 3.6,27.6
2023/08/07 20:20:00, 4.5,27.6
2023/08/07 20:30:00, 5.4,27.6
2023/08/07 20:40:00, 5.8,27.2
2023/08/07 20:50:00, 4.8,27.6
2023/08/07 21:00:00, 4.4,27.6
2023/08/07 21:10:00, 4.4,27.3
2023/08/07 21:20:00, 4.4,27.3
2023/08/07 21:30:00, 3.4,27.7
2023/08/07 21:40:00, 3.3,27.7
2023/08/07 21:50:00, 3.6,27.6
2023/08/07 22:00:00, 4.3,27.7
2023/08/07 22:10:00, 9.3,27.6
2023/08/07 22:20:00, 4.2,28.0
2023/08/07 22:30:00, 0.3,27.8
2023/08/07 22:40:00, 0.2,27.9
2023/08/07 22:50:00, 0.2,27.8
2023/08/07 23:00:00, 0.2,27.6
2023/08/07 23:10:00, 0.2,27.7
2023/08/07 23:20:00, 0.2,27.6
2023/08/07 23:30:00, 0.2,27.6
2023/08/07 23:40:00, 0.2,27.7
2023/08/07 23:50:00, 0.1,27.8
